Dalaman, Turkey

7:07 AM +03 on May 30, 2017 (GMT +0300)
Dalaman

Weather History for LTBS - August, 2013

Change the Weather History Date:

Thursday, August 1, 2013

  Actual Average Record
Temperature  
Mean Temperature 82 °F -  
Max Temperature 93 °F 88 °F 102 °F (2008)
Min Temperature 70 °F 69 °F 66 °F (1996)
Cooling Degree Days 16    
Growing Degree Days 32 (Base 50)    
Moisture  
Dew Point 68 °F    
Average Humidity 61    
Maximum Humidity 83    
Minimum Humidity 41    
Precipitation  
Precipitation 0.00 in - - ()
Sea Level Pressure  
Sea Level Pressure 29.65 in    
Wind  
Wind Speed 7 mph ()    
Max Wind Speed 15 mph    
Max Gust Speed -    
Visibility 6.2 miles    
Events      
Averages and records for this station are not official NWS values.
T = Trace of Precipitation, MM = Missing Value Source: Averaged Metar Reports

Daily Weather History Graph

Daily Weather History Graph

Search for Another Location

Airport or City:

Trip Planner

Search our weather history database for the weather conditions in past years. The results will help you decide how hot, cold, wet, or windy it might be!

Date:

Astronomy

Aug. 01, 2013 Rise Set
Actual Time 6:10 AM EEST 8:11 PM EEST
Civil Twilight 5:42 AM EEST 8:39 PM EEST
Nautical Twilight 5:07 AM EEST 9:14 PM EEST
Astronomical Twilight 4:29 AM EEST 9:51 PM EEST
Moon 1:33 AM EEST (8/1) 4:02 PM EEST (8/1)
Length of Visible Light 14h 57m
Length of Day
14h 00m
Waning Crescent, 26% of the Moon is Illuminated
Aug 1
Waning Crescent
Aug 7
New
Aug 14
First Quarter
Aug 21
Full
Aug 28
Last Quarter

Hourly Weather History & Observations

Time (EEST) Temp. Heat Index Dew Point Humidity Pressure Visibility Wind Dir Wind Speed Gust Speed Precip Events Conditions
12:20 AM 73.4 °F - 68.0 °F 83% 29.65 in - North 3.5 mph - N/A   Clear
12:50 AM 73.4 °F - 68.0 °F 83% 29.65 in - ENE 4.6 mph - N/A   Clear
1:20 AM 71.6 °F - 66.2 °F 83% 29.65 in - East 4.6 mph - N/A   Clear
1:50 AM 71.6 °F - 62.6 °F 73% 29.62 in - NNE 5.8 mph - N/A   Clear
2:20 AM 71.6 °F - 64.4 °F 78% 29.62 in - NNE 6.9 mph - N/A   Clear
2:50 AM 71.6 °F - 62.6 °F 73% 29.62 in - ENE 4.6 mph - N/A   Clear
3:00 AM 72 °F - 62 °F 64% 29.63 in 6 mi ENE 4.6 mph - -  
3:20 AM 71.6 °F - 60.8 °F 69% 29.62 in - East 5.8 mph - N/A   Clear
3:50 AM 73.4 °F - 62.6 °F 69% 29.59 in - NE 8.1 mph - N/A   Clear
4:20 AM 73.4 °F - 62.6 °F 69% 29.59 in - ENE 8.1 mph - N/A   Clear
4:50 AM 71.6 °F - 60.8 °F 69% 29.59 in - NE 5.8 mph - N/A   Clear
5:20 AM 75.2 °F - 60.8 °F 61% 29.59 in - NE 6.9 mph - N/A   Clear
5:50 AM 77.0 °F - 60.8 °F 57% 29.62 in - East 6.9 mph - N/A   Clear
6:20 AM 77.0 °F - 59.0 °F 54% 29.62 in - ENE 9.2 mph - N/A   Clear
6:50 AM 77.0 °F - 60.8 °F 57% 29.62 in - East 5.8 mph - N/A   Clear
7:20 AM 80.6 °F 81.5 °F 60.8 °F 51% 29.62 in - ENE 5.8 mph - N/A   Clear
7:50 AM 84.2 °F 86.6 °F 66.2 °F 55% 29.62 in - East 8.1 mph - N/A   Clear
8:20 AM 86.0 °F 88.2 °F 66.2 °F 51% 29.65 in - East 9.2 mph - N/A   Clear
8:50 AM 86.0 °F 89.4 °F 68.0 °F 55% 29.65 in - East 9.2 mph - N/A   Clear
9:00 AM 87 °F - 67 °F 43% 29.67 in 6 mi East 9.2 mph - -  
9:20 AM 87.8 °F 92.6 °F 69.8 °F 55% 29.65 in - ESE 9.2 mph - N/A   Clear
9:50 AM 89.6 °F 93.4 °F 68.0 °F 49% 29.65 in - ESE 6.9 mph - N/A   Clear
10:20 AM 91.4 °F 93.2 °F 64.4 °F 41% 29.65 in - Variable 5.8 mph - N/A   Clear
10:50 AM 89.6 °F 98.2 °F 73.4 °F 59% 29.65 in - SSW 10.4 mph - N/A   Clear
11:20 AM 91.4 °F 100.1 °F 73.4 °F 55% 29.68 in - SSW 11.5 mph - N/A   Clear
11:50 AM 89.6 °F 99.8 °F 75.2 °F 62% 29.68 in - SW 13.8 mph - N/A   Clear
12:20 PM 87.8 °F 97.6 °F 75.2 °F 66% 29.68 in 6.2 mi SSW 15.0 mph - N/A   Partly Cloudy
12:50 PM 87.8 °F 95.6 °F 73.4 °F 62% 29.68 in 6.2 mi SSW 15.0 mph - N/A   Partly Cloudy
1:20 PM 87.8 °F 97.6 °F 75.2 °F 66% 29.68 in 6.2 mi SW 15.0 mph - N/A   Partly Cloudy
1:50 PM 89.6 °F 98.2 °F 73.4 °F 59% 29.65 in 6.2 mi SSW 13.8 mph - N/A   Partly Cloudy
2:20 PM 89.6 °F 98.2 °F 73.4 °F 59% 29.65 in 6.2 mi SSW 13.8 mph - N/A   Partly Cloudy
2:50 PM 89.6 °F 99.8 °F 75.2 °F 62% 29.65 in 6.2 mi SSW 13.8 mph - N/A   Partly Cloudy
3:00 PM 89 °F - 74 °F 54% 29.67 in 6 mi SSW 13.8 mph - -   Scattered Clouds
3:20 PM 91.4 °F 94.0 °F 66.2 °F 43% 29.65 in 6.2 mi SSW 11.5 mph - N/A   Partly Cloudy
3:50 PM 91.4 °F 98.4 °F 71.6 °F 52% 29.65 in 6.2 mi South 12.7 mph - N/A   Partly Cloudy
4:20 PM 91.4 °F 98.4 °F 71.6 °F 52% 29.65 in 6.2 mi SSW 10.4 mph - N/A   Partly Cloudy
4:50 PM 89.6 °F 96.2 °F 71.6 °F 55% 29.65 in 6.2 mi South 11.5 mph - N/A   Partly Cloudy
5:20 PM 89.6 °F 96.2 °F 71.6 °F 55% 29.65 in 6.2 mi South 9.2 mph - N/A   Partly Cloudy
5:50 PM 89.6 °F 96.2 °F 71.6 °F 55% 29.65 in 6.2 mi South 9.2 mph - N/A   Partly Cloudy
6:20 PM 87.8 °F 93.8 °F 71.6 °F 58% 29.65 in 6.2 mi South 8.1 mph - N/A   Partly Cloudy
6:50 PM 87.8 °F 93.8 °F 71.6 °F 58% 29.65 in - South 9.2 mph - N/A   Clear
7:20 PM 87.8 °F 95.6 °F 73.4 °F 62% 29.65 in - South 8.1 mph - N/A   Clear
7:50 PM 86.0 °F 91.8 °F 71.6 °F 62% 29.65 in - South 6.9 mph - N/A   Clear
8:20 PM 86.0 °F 91.8 °F 71.6 °F 62% 29.65 in - South 5.8 mph - N/A   Clear
8:50 PM 84.2 °F 88.4 °F 69.8 °F 62% 29.68 in - South 4.6 mph - N/A   Clear
9:00 PM 84 °F - 70 °F 54% 29.68 in 6 mi South 4.6 mph - -  
9:20 PM 84.2 °F 88.4 °F 69.8 °F 62% 29.68 in - Variable 1.2 mph - N/A   Clear
9:50 PM 82.4 °F 86.3 °F 69.8 °F 66% 29.68 in - ENE 4.6 mph - N/A   Clear
10:20 PM 84.2 °F 89.6 °F 71.6 °F 66% 29.68 in - ESE 8.1 mph - N/A   Clear
10:50 PM 80.6 °F 83.9 °F 69.8 °F 70% 29.68 in - NE 6.9 mph - N/A   Clear
11:20 PM 80.6 °F 83.9 °F 69.8 °F 70% 29.68 in - NNE 6.9 mph - N/A   Clear
11:50 PM 78.8 °F - 69.8 °F 74% 29.68 in - ENE 3.5 mph - N/A   Clear